User: anonymous
Location: Clinton NY
(43.0598°N, 75.3602°W)
Time: 04:11:37
(UTC-04:00)
Language:

ISS - Orbit

View from above orbital plane
View from above orbital plane
View from above satellite
View from above satellite

Ground track
Ground track

The orbit data is extracted from the following two-line orbital elements,

1 25544U 98067A   14274.20687345  .00012360  00000-0  21825-3 0  1819
2 25544 051.6465 294.0846 0002176 130.3437 349.3260 15.50767611907775
Epoch (UTC): 01 October 2014 04:57:53
Eccentricity: 0.0002176
inclination: 51.6465°
perigee height: 413 km
apogee height: 416 km
right ascension of ascending node: 294.0846°
argument of perigee: 130.3437°
revolutions per day: 15.50767611
mean anomaly at epoch: 349.3260°
orbit number at epoch: 90777

The dashed part of the orbit path shows where the satellite is in the earth's shadow,  

DLR